owner,sensor,date,latitude,longitude,vertical_datum,sea_water_practical_salinity,qcFlag 
ENP,ioos.station.NOAA.NDBC:LBRF1:1,2009-09-01T00:00:00Z,25.4840,-81.1330,1.5,2.7,11111222 
ENP,ioos.station.NOAA.NDBC:LBRF1:1,2009-09-01T01:00:00Z,25.4840,-81.1330,1.5,2.7,11111222 
ENP,ioos.station.NOAA.NDBC:LBRF1:1,2009-09-01T02:00:00Z,25.4840,-81.1330,1.5,2.5,11111222 
ENP,ioos.station.NOAA.NDBC:LBRF1:1,2009-09-01T04:00:00Z,25.4840,-81.1330,1.5,2.6,11111222 
ENP,ioos.station.NOAA.NDBC:LBRF1:1,2009-09-01T05:00:00Z,25.4840,-81.1330,1.5,3.2,11111222 
ENP,ioos.station.NOAA.NDBC:LBRF1:1,2009-09-01T06:00:00Z,25.4840,-81.1330,1.5,7.1,11111222 
ENP,ioos.station.NOAA.NDBC:LBRF1:1,2009-09-01T08:00:00Z,25.4840,-81.1330,1.5,8.8,11111222 
ENP,ioos.station.NOAA.NDBC:LBRF1:1,2009-09-01T09:00:00Z,25.4840,-81.1330,1.5,3.8,11111222 
ENP,ioos.station.NOAA.NDBC:LBRF1:1,2009-09-01T10:00:00Z,25.4840,-81.1330,1.5,3.0,11111222 
ENP,ioos.station.NOAA.NDBC:LBRF1:1,2009-09-01T11:00:00Z,25.4840,-81.1330,1.5,2.7,11111222 
ENP,ioos.station.NOAA.NDBC:LBRF1:1,2009-09-01T12:00:00Z,25.4840,-81.1330,1.5,2.6,11111222 
ENP,ioos.station.NOAA.NDBC:LBRF1:1,2009-09-01T13:00:00Z,25.4840,-81.1330,1.5,2.5,11111222 
ENP,ioos.station.NOAA.NDBC:LBRF1:1,2009-09-01T14:00:00Z,25.4840,-81.1330,1.5,2.4,11111222 
ENP,ioos.station.NOAA.NDBC:LBRF1:1,2009-09-01T15:00:00Z,25.4840,-81.1330,1.5,4.6,11111222 
ENP,ioos.station.NOAA.NDBC:LBRF1:1,2009-09-01T16:00:00Z,25.4840,-81.1330,1.5,7.1,11111222 
ENP,ioos.station.NOAA.NDBC:LBRF1:1,2009-09-01T17:00:00Z,25.4840,-81.1330,1.5,16.1,11111222 
ENP,ioos.station.NOAA.NDBC:LBRF1:1,2009-09-02T19:00:00Z,25.4840,-81.1330,1.5,24.5,11111222 
ENP,ioos.station.NOAA.NDBC:LBRF1:1,2009-09-02T20:00:00Z,25.4840,-81.1330,1.5,24.8,11111222 
ENP,ioos.station.NOAA.NDBC:LBRF1:1,2009-09-02T21:00:00Z,25.4840,-81.1330,1.5,23.6,11111222 
ENP,ioos.station.NOAA.NDBC:LBRF1:1,2009-09-02T22:00:00Z,25.4840,-81.1330,1.5,17.9,11111222 
ENP,ioos.station.NOAA.NDBC:LBRF1:1,2009-09-02T23:00:00Z,25.4840,-81.1330,1.5,11.9,11111222 
ENP,ioos.station.NOAA.NDBC:LBRF1:1,2009-09-03T00:00:00Z,25.4840,-81.1330,1.5,6.6,11111222 
ENP,ioos.station.NOAA.NDBC:LBRF1:1,2009-09-03T01:00:00Z,25.4840,-81.1330,1.5,3.2,11111222 
ENP,ioos.station.NOAA.NDBC:LBRF1:1,2009-09-03T02:00:00Z,25.4840,-81.1330,1.5,2.6,11111222 
ENP,ioos.station.NOAA.NDBC:LBRF1:1,2009-09-03T03:00:00Z,25.4840,-81.1330,1.5,2.4,11111222 
ENP,ioos.station.NOAA.NDBC:LBRF1:1,2009-09-03T04:00:00Z,25.4840,-81.1330,1.5,2.5,11111222 
ENP,ioos.station.NOAA.NDBC:LBRF1:1,2009-09-03T05:00:00Z,25.4840,-81.1330,1.5,5.2,11111222 
ENP,ioos.station.NOAA.NDBC:LBRF1:1,2009-09-03T06:00:00Z,25.4840,-81.1330,1.5,14.9,11111222 
ENP,ioos.station.NOAA.NDBC:LBRF1:1,2009-09-03T07:00:00Z,25.4840,-81.1330,1.5,20.2,11111222 
ENP,ioos.station.NOAA.NDBC:LBRF1:1,2009-09-03T08:00:00Z,25.4840,-81.1330,1.5,22.0,11111222 
ENP,ioos.station.NOAA.NDBC:LBRF1:1,2009-09-03T09:00:00Z,25.4840,-81.1330,1.5,21.6,11111222 
ENP,ioos.station.NOAA.NDBC:LBRF1:1,2009-09-03T10:00:00Z,25.4840,-81.1330,1.5,16.1,11111222 
ENP,ioos.station.NOAA.NDBC:LBRF1:1,2009-09-03T11:00:00Z,25.4840,-81.1330,1.5,13.5,11111222 
ENP,ioos.station.NOAA.NDBC:LBRF1:1,2009-09-03T12:00:00Z,25.4840,-81.1330,1.5,6.6,11111222 
ENP,ioos.station.NOAA.NDBC:LBRF1:1,2009-09-03T13:00:00Z,25.4840,-81.1330,1.5,3.5,11111222 
ENP,ioos.station.NOAA.NDBC:LBRF1:1,2009-09-03T14:00:00Z,25.4840,-81.1330,1.5,2.7,11111222 
ENP,ioos.station.NOAA.NDBC:LBRF1:1,2009-09-03T15:00:00Z,25.4840,-81.1330,1.5,2.6,11111222 
ENP,ioos.station.NOAA.NDBC:LBRF1:1,2009-09-03T16:00:00Z,25.4840,-81.1330,1.5,7.9,11111222 
ENP,ioos.station.NOAA.NDBC:LBRF1:1,2009-09-03T17:00:00Z,25.4840,-81.1330,1.5,15.4,11111222 
ENP,ioos.station.NOAA.NDBC:LBRF1:1,2009-09-03T18:00:00Z,25.4840,-81.1330,1.5,23.4,11111222 
ENP,ioos.station.NOAA.NDBC:LBRF1:1,2009-09-03T19:00:00Z,25.4840,-81.1330,1.5,25.5,11111222 
ENP,ioos.station.NOAA.NDBC:LBRF1:1,2009-09-03T20:00:00Z,25.4840,-81.1330,1.5,26.1,11111222 
ENP,ioos.station.NOAA.NDBC:LBRF1:1,2009-09-03T21:00:00Z,25.4840,-81.1330,1.5,26.4,11111222 
ENP,ioos.station.NOAA.NDBC:LBRF1:1,2009-09-03T22:00:00Z,25.4840,-81.1330,1.5,25.8,11111222 
ENP,ioos.station.NOAA.NDBC:LBRF1:1,2009-09-03T23:00:00Z,25.4840,-81.1330,1.5,23.0,11111222 
ENP,ioos.station.NOAA.NDBC:LBRF1:1,2009-09-04T00:00:00Z,25.4840,-81.1330,1.5,20.1,11111222 
ENP,ioos.station.NOAA.NDBC:LBRF1:1,2009-09-04T01:00:00Z,25.4840,-81.1330,1.5,13.4,11111222 
ENP,ioos.station.NOAA.NDBC:LBRF1:1,2009-09-04T02:00:00Z,25.4840,-81.1330,1.5,7.2,11111222 
ENP,ioos.station.NOAA.NDBC:LBRF1:1,2009-09-04T03:00:00Z,25.4840,-81.1330,1.5,4.7,11111222 
ENP,ioos.station.NOAA.NDBC:LBRF1:1,2009-09-04T04:00:00Z,25.4840,-81.1330,1.5,4.6,11111222 
ENP,ioos.station.NOAA.NDBC:LBRF1:1,2009-09-04T05:00:00Z,25.4840,-81.1330,1.5,8.0,11111222 
ENP,ioos.station.NOAA.NDBC:LBRF1:1,2009-09-04T06:00:00Z,25.4840,-81.1330,1.5,15.5,11111222 
ENP,ioos.station.NOAA.NDBC:LBRF1:1,2009-09-04T07:00:00Z,25.4840,-81.1330,1.5,21.4,11111222 
ENP,ioos.station.NOAA.NDBC:LBRF1:1,2009-09-04T08:00:00Z,25.4840,-81.1330,1.5,22.8,11111222 
ENP,ioos.station.NOAA.NDBC:LBRF1:1,2009-09-04T09:00:00Z,25.4840,-81.1330,1.5,22.8,11111222 
ENP,ioos.station.NOAA.NDBC:LBRF1:1,2009-09-04T10:00:00Z,25.4840,-81.1330,1.5,22.6,11111222 
ENP,ioos.station.NOAA.NDBC:LBRF1:1,2009-09-04T11:00:00Z,25.4840,-81.1330,1.5,17.9,11111222 
ENP,ioos.station.NOAA.NDBC:LBRF1:1,2009-09-04T12:00:00Z,25.4840,-81.1330,1.5,13.0,11111222 
ENP,ioos.station.NOAA.NDBC:LBRF1:1,2009-09-04T13:00:00Z,25.4840,-81.1330,1.5,6.7,11111222 
ENP,ioos.station.NOAA.NDBC:LBRF1:1,2009-09-04T14:00:00Z,25.4840,-81.1330,1.5,4.0,11111222 
ENP,ioos.station.NOAA.NDBC:LBRF1:1,2009-09-04T15:00:00Z,25.4840,-81.1330,1.5,3.3,11111222 
ENP,ioos.station.NOAA.NDBC:LBRF1:1,2009-09-04T16:00:00Z,25.4840,-81.1330,1.5,3.8,11111222 
ENP,ioos.station.NOAA.NDBC:LBRF1:1,2009-09-04T17:00:00Z,25.4840,-81.1330,1.5,10.8,11111222 
ENP,ioos.station.NOAA.NDBC:LBRF1:1,2009-09-04T18:00:00Z,25.4840,-81.1330,1.5,20.3,11111222 
ENP,ioos.station.NOAA.NDBC:LBRF1:1,2009-09-04T19:00:00Z,25.4840,-81.1330,1.5,24.1,11111222 
ENP,ioos.station.NOAA.NDBC:LBRF1:1,2009-09-04T20:00:00Z,25.4840,-81.1330,1.5,25.8,11111222 
ENP,ioos.station.NOAA.NDBC:LBRF1:1,2009-09-04T21:00:00Z,25.4840,-81.1330,1.5,26.1,11111222 
ENP,ioos.station.NOAA.NDBC:LBRF1:1,2009-09-04T22:00:00Z,25.4840,-81.1330,1.5,25.6,11111222 
ENP,ioos.station.NOAA.NDBC:LBRF1:1,2009-09-04T23:00:00Z,25.4840,-81.1330,1.5,22.9,11111222 
ENP,ioos.station.NOAA.NDBC:LBRF1:1,2009-09-05T00:00:00Z,25.4840,-81.1330,1.5,20.1,11111222 
ENP,ioos.station.NOAA.NDBC:LBRF1:1,2009-09-05T01:00:00Z,25.4840,-81.1330,1.5,14.7,11111222 
ENP,ioos.station.NOAA.NDBC:LBRF1:1,2009-09-05T02:00:00Z,25.4840,-81.1330,1.5,7.7,11111222 
ENP,ioos.station.NOAA.NDBC:LBRF1:1,2009-09-05T03:00:00Z,25.4840,-81.1330,1.5,4.6,11111222 
ENP,ioos.station.NOAA.NDBC:LBRF1:1,2009-09-05T04:00:00Z,25.4840,-81.1330,1.5,4.0,11111222 
ENP,ioos.station.NOAA.NDBC:LBRF1:1,2009-09-05T05:00:00Z,25.4840,-81.1330,1.5,4.4,11111222 
ENP,ioos.station.NOAA.NDBC:LBRF1:1,2009-09-05T06:00:00Z,25.4840,-81.1330,1.5,10.6,11111222 
ENP,ioos.station.NOAA.NDBC:LBRF1:1,2009-09-05T07:00:00Z,25.4840,-81.1330,1.5,16.8,11111222 
ENP,ioos.station.NOAA.NDBC:LBRF1:1,2009-09-05T08:00:00Z,25.4840,-81.1330,1.5,21.8,11111222 
ENP,ioos.station.NOAA.NDBC:LBRF1:1,2009-09-05T09:00:00Z,25.4840,-81.1330,1.5,22.8,11111222 
ENP,ioos.station.NOAA.NDBC:LBRF1:1,2009-09-05T10:00:00Z,25.4840,-81.1330,1.5,22.6,11111222 
ENP,ioos.station.NOAA.NDBC:LBRF1:1,2009-09-05T11:00:00Z,25.4840,-81.1330,1.5,17.6,11111222 
ENP,ioos.station.NOAA.NDBC:LBRF1:1,2009-09-05T12:00:00Z,25.4840,-81.1330,1.5,14.5,11111222 
ENP,ioos.station.NOAA.NDBC:LBRF1:1,2009-09-05T13:00:00Z,25.4840,-81.1330,1.5,8.4,11111222 
ENP,ioos.station.NOAA.NDBC:LBRF1:1,2009-09-05T14:00:00Z,25.4840,-81.1330,1.5,4.3,11111222 
ENP,ioos.station.NOAA.NDBC:LBRF1:1,2009-09-05T15:00:00Z,25.4840,-81.1330,1.5,3.4,11111222 
ENP,ioos.station.NOAA.NDBC:LBRF1:1,2009-09-05T16:00:00Z,25.4840,-81.1330,1.5,3.2,11111222 
ENP,ioos.station.NOAA.NDBC:LBRF1:1,2009-09-05T17:00:00Z,25.4840,-81.1330,1.5,3.4,11111222 
ENP,ioos.station.NOAA.NDBC:LBRF1:1,2009-09-05T18:00:00Z,25.4840,-81.1330,1.5,8.4,11111222 
ENP,ioos.station.NOAA.NDBC:LBRF1:1,2009-09-05T19:00:00Z,25.4840,-81.1330,1.5,17.9,11111222 
ENP,ioos.station.NOAA.NDBC:LBRF1:1,2009-09-05T20:00:00Z,25.4840,-81.1330,1.5,21.6,11111222 
ENP,ioos.station.NOAA.NDBC:LBRF1:1,2009-09-05T21:00:00Z,25.4840,-81.1330,1.5,22.5,11111222 
ENP,ioos.station.NOAA.NDBC:LBRF1:1,2009-09-05T22:00:00Z,25.4840,-81.1330,1.5,22.0,11111222 
ENP,ioos.station.NOAA.NDBC:LBRF1:1,2009-09-05T23:00:00Z,25.4840,-81.1330,1.5,16.5,11111222 
ENP,ioos.station.NOAA.NDBC:LBRF1:1,2009-09-06T00:00:00Z,25.4840,-81.1330,1.5,13.8,11111222 
ENP,ioos.station.NOAA.NDBC:LBRF1:1,2009-09-06T01:00:00Z,25.4840,-81.1330,1.5,6.4,11111222 
ENP,ioos.station.NOAA.NDBC:LBRF1:1,2009-09-06T02:00:00Z,25.4840,-81.1330,1.5,3.7,11111222 
ENP,ioos.station.NOAA.NDBC:LBRF1:1,2009-09-06T03:00:00Z,25.4840,-81.1330,1.5,2.8,11111222 
ENP,ioos.station.NOAA.NDBC:LBRF1:1,2009-09-06T04:00:00Z,25.4840,-81.1330,1.5,2.6,11111222 
ENP,ioos.station.NOAA.NDBC:LBRF1:1,2009-09-06T05:00:00Z,25.4840,-81.1330,1.5,2.6,11111222 
ENP,ioos.station.NOAA.NDBC:LBRF1:1,2009-09-06T06:00:00Z,25.4840,-81.1330,1.5,2.9,11111222 
ENP,ioos.station.NOAA.NDBC:LBRF1:1,2009-09-06T07:00:00Z,25.4840,-81.1330,1.5,9.3,11111222 
ENP,ioos.station.NOAA.NDBC:LBRF1:1,2009-09-06T08:00:00Z,25.4840,-81.1330,1.5,18.5,11111222 
ENP,ioos.station.NOAA.NDBC:LBRF1:1,2009-09-06T09:00:00Z,25.4840,-81.1330,1.5,21.5,11111222 
ENP,ioos.station.NOAA.NDBC:LBRF1:1,2009-09-06T10:00:00Z,25.4840,-81.1330,1.5,21.3,11111222 
ENP,ioos.station.NOAA.NDBC:LBRF1:1,2009-09-06T11:00:00Z,25.4840,-81.1330,1.5,13.1,11111222 
ENP,ioos.station.NOAA.NDBC:LBRF1:1,2009-09-06T12:00:00Z,25.4840,-81.1330,1.5,10.2,11111222 
ENP,ioos.station.NOAA.NDBC:LBRF1:1,2009-09-06T13:00:00Z,25.4840,-81.1330,1.5,3.9,11111222 
ENP,ioos.station.NOAA.NDBC:LBRF1:1,2009-09-06T14:00:00Z,25.4840,-81.1330,1.5,2.9,11111222 
ENP,ioos.station.NOAA.NDBC:LBRF1:1,2009-09-06T15:00:00Z,25.4840,-81.1330,1.5,2.4,11111222 
ENP,ioos.station.NOAA.NDBC:LBRF1:1,2009-09-06T16:00:00Z,25.4840,-81.1330,1.5,2.2,11111222 
ENP,ioos.station.NOAA.NDBC:LBRF1:1,2009-09-06T17:00:00Z,25.4840,-81.1330,1.5,2.2,11111222 
ENP,ioos.station.NOAA.NDBC:LBRF1:1,2009-09-06T18:00:00Z,25.4840,-81.1330,1.5,2.3,11111222 
ENP,ioos.station.NOAA.NDBC:LBRF1:1,2009-09-06T19:00:00Z,25.4840,-81.1330,1.5,4.8,11111222 
ENP,ioos.station.NOAA.NDBC:LBRF1:1,2009-09-06T20:00:00Z,25.4840,-81.1330,1.5,16.8,11111222 
ENP,ioos.station.NOAA.NDBC:LBRF1:1,2009-09-06T21:00:00Z,25.4840,-81.1330,1.5,21.2,11111222 
ENP,ioos.station.NOAA.NDBC:LBRF1:1,2009-09-06T22:00:00Z,25.4840,-81.1330,1.5,22.2,11111222 
ENP,ioos.station.NOAA.NDBC:LBRF1:1,2009-09-06T23:00:00Z,25.4840,-81.1330,1.5,20.7,11111222 
ENP,ioos.station.NOAA.NDBC:LBRF1:1,2009-09-07T00:00:00Z,25.4840,-81.1330,1.5,14.6,11111222 
ENP,ioos.station.NOAA.NDBC:LBRF1:1,2009-09-07T01:00:00Z,25.4840,-81.1330,1.5,9.8,11111222 
ENP,ioos.station.NOAA.NDBC:LBRF1:1,2009-09-07T02:00:00Z,25.4840,-81.1330,1.5,3.7,11111222 
ENP,ioos.station.NOAA.NDBC:LBRF1:1,2009-09-07T03:00:00Z,25.4840,-81.1330,1.5,2.6,11111222 
ENP,ioos.station.NOAA.NDBC:LBRF1:1,2009-09-07T04:00:00Z,25.4840,-81.1330,1.5,2.2,11111222 
ENP,ioos.station.NOAA.NDBC:LBRF1:1,2009-09-07T05:00:00Z,25.4840,-81.1330,1.5,2.1,11111222 
ENP,ioos.station.NOAA.NDBC:LBRF1:1,2009-09-07T06:00:00Z,25.4840,-81.1330,1.5,2.3,11111222 
ENP,ioos.station.NOAA.NDBC:LBRF1:1,2009-09-07T07:00:00Z,25.4840,-81.1330,1.5,7.2,11111222 
ENP,ioos.station.NOAA.NDBC:LBRF1:1,2009-09-07T08:00:00Z,25.4840,-81.1330,1.5,16.7,11111222 
ENP,ioos.station.NOAA.NDBC:LBRF1:1,2009-09-07T09:00:00Z,25.4840,-81.1330,1.5,21.8,11111222 
ENP,ioos.station.NOAA.NDBC:LBRF1:1,2009-09-07T10:00:00Z,25.4840,-81.1330,1.5,22.9,11111222 
ENP,ioos.station.NOAA.NDBC:LBRF1:1,2009-09-07T11:00:00Z,25.4840,-81.1330,1.5,20.6,11111222 
ENP,ioos.station.NOAA.NDBC:LBRF1:1,2009-09-07T12:00:00Z,25.4840,-81.1330,1.5,14.7,11111222 
ENP,ioos.station.NOAA.NDBC:LBRF1:1,2009-09-07T13:00:00Z,25.4840,-81.1330,1.5,8.6,11111222 
ENP,ioos.station.NOAA.NDBC:LBRF1:1,2009-09-07T14:00:00Z,25.4840,-81.1330,1.5,3.3,11111222 
ENP,ioos.station.NOAA.NDBC:LBRF1:1,2009-09-07T15:00:00Z,25.4840,-81.1330,1.5,2.4,11111222 
ENP,ioos.station.NOAA.NDBC:LBRF1:1,2009-09-07T16:00:00Z,25.4840,-81.1330,1.5,2.1,11111222 
ENP,ioos.station.NOAA.NDBC:LBRF1:1,2009-09-07T17:00:00Z,25.4840,-81.1330,1.5,1.9,11111222 
ENP,ioos.station.NOAA.NDBC:LBRF1:1,2009-09-07T18:00:00Z,25.4840,-81.1330,1.5,2.0,11111222 
ENP,ioos.station.NOAA.NDBC:LBRF1:1,2009-09-07T19:00:00Z,25.4840,-81.1330,1.5,2.3,11111222 
ENP,ioos.station.NOAA.NDBC:LBRF1:1,2009-09-07T20:00:00Z,25.4840,-81.1330,1.5,11.5,11111222 
ENP,ioos.station.NOAA.NDBC:LBRF1:1,2009-09-07T21:00:00Z,25.4840,-81.1330,1.5,19.3,11111222 
ENP,ioos.station.NOAA.NDBC:LBRF1:1,2009-09-07T22:00:00Z,25.4840,-81.1330,1.5,22.1,11111222 
ENP,ioos.station.NOAA.NDBC:LBRF1:1,2009-09-07T23:00:00Z,25.4840,-81.1330,1.5,22.3,11111222 
ENP,ioos.station.NOAA.NDBC:LBRF1:1,2009-09-08T00:00:00Z,25.4840,-81.1330,1.5,17.4,11111222 
ENP,ioos.station.NOAA.NDBC:LBRF1:1,2009-09-08T01:00:00Z,25.4840,-81.1330,1.5,14.1,11111222 
ENP,ioos.station.NOAA.NDBC:LBRF1:1,2009-09-08T02:00:00Z,25.4840,-81.1330,1.5,7.2,11111222 
ENP,ioos.station.NOAA.NDBC:LBRF1:1,2009-09-08T03:00:00Z,25.4840,-81.1330,1.5,3.0,11111222 
ENP,ioos.station.NOAA.NDBC:LBRF1:1,2009-09-08T04:00:00Z,25.4840,-81.1330,1.5,2.3,11111222 
ENP,ioos.station.NOAA.NDBC:LBRF1:1,2009-09-08T05:00:00Z,25.4840,-81.1330,1.5,2.0,11111222 
ENP,ioos.station.NOAA.NDBC:LBRF1:1,2009-09-08T06:00:00Z,25.4840,-81.1330,1.5,2.3,11111222 
ENP,ioos.station.NOAA.NDBC:LBRF1:1,2009-09-08T07:00:00Z,25.4840,-81.1330,1.5,8.6,11111222 
ENP,ioos.station.NOAA.NDBC:LBRF1:1,2009-09-08T08:00:00Z,25.4840,-81.1330,1.5,16.6,11111222 
ENP,ioos.station.NOAA.NDBC:LBRF1:1,2009-09-08T09:00:00Z,25.4840,-81.1330,1.5,22.5,11111222 
ENP,ioos.station.NOAA.NDBC:LBRF1:1,2009-09-08T10:00:00Z,25.4840,-81.1330,1.5,24.0,11111222 
ENP,ioos.station.NOAA.NDBC:LBRF1:1,2009-09-08T11:00:00Z,25.4840,-81.1330,1.5,24.0,11111222 
ENP,ioos.station.NOAA.NDBC:LBRF1:1,2009-09-08T12:00:00Z,25.4840,-81.1330,1.5,22.3,11111222 
ENP,ioos.station.NOAA.NDBC:LBRF1:1,2009-09-08T13:00:00Z,25.4840,-81.1330,1.5,17.7,11111222 
ENP,ioos.station.NOAA.NDBC:LBRF1:1,2009-09-08T14:00:00Z,25.4840,-81.1330,1.5,12.3,11111222 
ENP,ioos.station.NOAA.NDBC:LBRF1:1,2009-09-08T15:00:00Z,25.4840,-81.1330,1.5,5.4,11111222 
ENP,ioos.station.NOAA.NDBC:LBRF1:1,2009-09-08T16:00:00Z,25.4840,-81.1330,1.5,2.6,11111222 
ENP,ioos.station.NOAA.NDBC:LBRF1:1,2009-09-08T17:00:00Z,25.4840,-81.1330,1.5,2.2,11111222 
ENP,ioos.station.NOAA.NDBC:LBRF1:1,2009-09-08T18:00:00Z,25.4840,-81.1330,1.5,2.0,11111222 
ENP,ioos.station.NOAA.NDBC:LBRF1:1,2009-09-08T19:00:00Z,25.4840,-81.1330,1.5,2.1,11111222 
ENP,ioos.station.NOAA.NDBC:LBRF1:1,2009-09-08T20:00:00Z,25.4840,-81.1330,1.5,4.4,11111222 
ENP,ioos.station.NOAA.NDBC:LBRF1:1,2009-09-08T21:00:00Z,25.4840,-81.1330,1.5,15.3,11111222 
ENP,ioos.station.NOAA.NDBC:LBRF1:1,2009-09-08T22:00:00Z,25.4840,-81.1330,1.5,20.3,11111222 
ENP,ioos.station.NOAA.NDBC:LBRF1:1,2009-09-08T23:00:00Z,25.4840,-81.1330,1.5,22.1,11111222 
ENP,ioos.station.NOAA.NDBC:LBRF1:1,2009-09-09T00:00:00Z,25.4840,-81.1330,1.5,20.7,11111222 
ENP,ioos.station.NOAA.NDBC:LBRF1:1,2009-09-09T01:00:00Z,25.4840,-81.1330,1.5,14.3,11111222 
ENP,ioos.station.NOAA.NDBC:LBRF1:1,2009-09-09T02:00:00Z,25.4840,-81.1330,1.5,11.2,11111222 
ENP,ioos.station.NOAA.NDBC:LBRF1:1,2009-09-09T03:00:00Z,25.4840,-81.1330,1.5,4.4,11111222 
ENP,ioos.station.NOAA.NDBC:LBRF1:1,2009-09-09T04:00:00Z,25.4840,-81.1330,1.5,2.6,11111222 
ENP,ioos.station.NOAA.NDBC:LBRF1:1,2009-09-09T05:00:00Z,25.4840,-81.1330,1.5,2.1,11111222 
ENP,ioos.station.NOAA.NDBC:LBRF1:1,2009-09-09T06:00:00Z,25.4840,-81.1330,1.5,2.1,11111222 
ENP,ioos.station.NOAA.NDBC:LBRF1:1,2009-09-09T07:00:00Z,25.4840,-81.1330,1.5,2.6,11111222 
ENP,ioos.station.NOAA.NDBC:LBRF1:1,2009-09-09T08:00:00Z,25.4840,-81.1330,1.5,10.9,11111222 
ENP,ioos.station.NOAA.NDBC:LBRF1:1,2009-09-09T09:00:00Z,25.4840,-81.1330,1.5,18.5,11111222 
ENP,ioos.station.NOAA.NDBC:LBRF1:1,2009-09-09T10:00:00Z,25.4840,-81.1330,1.5,22.7,11111222 
ENP,ioos.station.NOAA.NDBC:LBRF1:1,2009-09-09T11:00:00Z,25.4840,-81.1330,1.5,24.1,11111222 
ENP,ioos.station.NOAA.NDBC:LBRF1:1,2009-09-09T12:00:00Z,25.4840,-81.1330,1.5,23.0,11111222 
ENP,ioos.station.NOAA.NDBC:LBRF1:1,2009-09-09T13:00:00Z,25.4840,-81.1330,1.5,17.4,11111222 
ENP,ioos.station.NOAA.NDBC:LBRF1:1,2009-09-09T14:00:00Z,25.4840,-81.1330,1.5,14.5,11111222 
ENP,ioos.station.NOAA.NDBC:LBRF1:1,2009-09-09T15:00:00Z,25.4840,-81.1330,1.5,8.3,11111222 
ENP,ioos.station.NOAA.NDBC:LBRF1:1,2009-09-09T16:00:00Z,25.4840,-81.1330,1.5,3.5,11111222 
ENP,ioos.station.NOAA.NDBC:LBRF1:1,2009-09-09T17:00:00Z,25.4840,-81.1330,1.5,2.2,11111222 
ENP,ioos.station.NOAA.NDBC:LBRF1:1,2009-09-09T18:00:00Z,25.4840,-81.1330,1.5,2.0,11111222 
ENP,ioos.station.NOAA.NDBC:LBRF1:1,2009-09-09T19:00:00Z,25.4840,-81.1330,1.5,1.8,11111222 
ENP,ioos.station.NOAA.NDBC:LBRF1:1,2009-09-09T20:00:00Z,25.4840,-81.1330,1.5,2.0,11111222 
ENP,ioos.station.NOAA.NDBC:LBRF1:1,2009-09-09T21:00:00Z,25.4840,-81.1330,1.5,2.7,11111222 
ENP,ioos.station.NOAA.NDBC:LBRF1:1,2009-09-09T22:00:00Z,25.4840,-81.1330,1.5,11.8,11111222 
ENP,ioos.station.NOAA.NDBC:LBRF1:1,2009-09-09T23:00:00Z,25.4840,-81.1330,1.5,17.6,11111222 
ENP,ioos.station.NOAA.NDBC:LBRF1:1,2009-09-10T00:00:00Z,25.4840,-81.1330,1.5,18.7,11111222 
ENP,ioos.station.NOAA.NDBC:LBRF1:1,2009-09-10T01:00:00Z,25.4840,-81.1330,1.5,15.3,11111222 
ENP,ioos.station.NOAA.NDBC:LBRF1:1,2009-09-10T02:00:00Z,25.4840,-81.1330,1.5,9.9,11111222 
ENP,ioos.station.NOAA.NDBC:LBRF1:1,2009-09-10T03:00:00Z,25.4840,-81.1330,1.5,3.3,11111222 
ENP,ioos.station.NOAA.NDBC:LBRF1:1,2009-09-10T04:00:00Z,25.4840,-81.1330,1.5,2.3,11111222 
ENP,ioos.station.NOAA.NDBC:LBRF1:1,2009-09-10T05:00:00Z,25.4840,-81.1330,1.5,2.0,11111222 
ENP,ioos.station.NOAA.NDBC:LBRF1:1,2009-09-10T06:00:00Z,25.4840,-81.1330,1.5,1.8,11111222 
ENP,ioos.station.NOAA.NDBC:LBRF1:1,2009-09-10T07:00:00Z,25.4840,-81.1330,1.5,1.9,11111222 
ENP,ioos.station.NOAA.NDBC:LBRF1:1,2009-09-10T08:00:00Z,25.4840,-81.1330,1.5,6.9,11111222 
ENP,ioos.station.NOAA.NDBC:LBRF1:1,2009-09-10T09:00:00Z,25.4840,-81.1330,1.5,11.4,11111222 
ENP,ioos.station.NOAA.NDBC:LBRF1:1,2009-09-10T10:00:00Z,25.4840,-81.1330,1.5,19.6,11111222 
ENP,ioos.station.NOAA.NDBC:LBRF1:1,2009-09-10T11:00:00Z,25.4840,-81.1330,1.5,21.9,11111222 
ENP,ioos.station.NOAA.NDBC:LBRF1:1,2009-09-10T12:00:00Z,25.4840,-81.1330,1.5,22.4,11111222 
ENP,ioos.station.NOAA.NDBC:LBRF1:1,2009-09-10T13:00:00Z,25.4840,-81.1330,1.5,21.3,11111222 
ENP,ioos.station.NOAA.NDBC:LBRF1:1,2009-09-10T14:00:00Z,25.4840,-81.1330,1.5,15.4,11111222 
ENP,ioos.station.NOAA.NDBC:LBRF1:1,2009-09-10T15:00:00Z,25.4840,-81.1330,1.5,11.4,11111222 
ENP,ioos.station.NOAA.NDBC:LBRF1:1,2009-09-10T16:00:00Z,25.4840,-81.1330,1.5,6.2,11111222 
ENP,ioos.station.NOAA.NDBC:LBRF1:1,2009-09-10T17:00:00Z,25.4840,-81.1330,1.5,2.4,11111222 
ENP,ioos.station.NOAA.NDBC:LBRF1:1,2009-09-10T18:00:00Z,25.4840,-81.1330,1.5,1.9,11111222 
ENP,ioos.station.NOAA.NDBC:LBRF1:1,2009-09-10T19:00:00Z,25.4840,-81.1330,1.5,1.7,11111222 
ENP,ioos.station.NOAA.NDBC:LBRF1:1,2009-09-10T20:00:00Z,25.4840,-81.1330,1.5,1.7,11111222 
ENP,ioos.station.NOAA.NDBC:LBRF1:1,2009-09-10T21:00:00Z,25.4840,-81.1330,1.5,1.8,11111222 
ENP,ioos.station.NOAA.NDBC:LBRF1:1,2009-09-10T22:00:00Z,25.4840,-81.1330,1.5,2.1,11111222 
ENP,ioos.station.NOAA.NDBC:LBRF1:1,2009-09-10T23:00:00Z,25.4840,-81.1330,1.5,8.5,11111222 
ENP,ioos.station.NOAA.NDBC:LBRF1:1,2009-09-11T00:00:00Z,25.4840,-81.1330,1.5,14.7,11111222 
ENP,ioos.station.NOAA.NDBC:LBRF1:1,2009-09-11T01:00:00Z,25.4840,-81.1330,1.5,15.8,11111222 
ENP,ioos.station.NOAA.NDBC:LBRF1:1,2009-09-11T02:00:00Z,25.4840,-81.1330,1.5,15.2,11111222 
ENP,ioos.station.NOAA.NDBC:LBRF1:1,2009-09-11T03:00:00Z,25.4840,-81.1330,1.5,11.0,11111222 
ENP,ioos.station.NOAA.NDBC:LBRF1:1,2009-09-11T04:00:00Z,25.4840,-81.1330,1.5,2.7,11111222 
ENP,ioos.station.NOAA.NDBC:LBRF1:1,2009-09-11T05:00:00Z,25.4840,-81.1330,1.5,2.0,11111222 
ENP,ioos.station.NOAA.NDBC:LBRF1:1,2009-09-11T06:00:00Z,25.4840,-81.1330,1.5,1.9,11111222 
ENP,ioos.station.NOAA.NDBC:LBRF1:1,2009-09-11T07:00:00Z,25.4840,-81.1330,1.5,1.9,11111222 
ENP,ioos.station.NOAA.NDBC:LBRF1:1,2009-09-11T08:00:00Z,25.4840,-81.1330,1.5,8.1,11111222 
ENP,ioos.station.NOAA.NDBC:LBRF1:1,2009-09-11T09:00:00Z,25.4840,-81.1330,1.5,10.9,11111222 
ENP,ioos.station.NOAA.NDBC:LBRF1:1,2009-09-11T10:00:00Z,25.4840,-81.1330,1.5,15.7,11111222 
ENP,ioos.station.NOAA.NDBC:LBRF1:1,2009-09-11T11:00:00Z,25.4840,-81.1330,1.5,20.3,11111222 
ENP,ioos.station.NOAA.NDBC:LBRF1:1,2009-09-11T12:00:00Z,25.4840,-81.1330,1.5,21.7,11111222 
ENP,ioos.station.NOAA.NDBC:LBRF1:1,2009-09-11T13:00:00Z,25.4840,-81.1330,1.5,22.3,11111222 
ENP,ioos.station.NOAA.NDBC:LBRF1:1,2009-09-11T14:00:00Z,25.4840,-81.1330,1.5,21.7,11111222 
ENP,ioos.station.NOAA.NDBC:LBRF1:1,2009-09-11T15:00:00Z,25.4840,-81.1330,1.5,18.4,11111222 
ENP,ioos.station.NOAA.NDBC:LBRF1:1,2009-09-11T16:00:00Z,25.4840,-81.1330,1.5,15.2,11111222 
ENP,ioos.station.NOAA.NDBC:LBRF1:1,2009-09-11T17:00:00Z,25.4840,-81.1330,1.5,9.4,11111222 
ENP,ioos.station.NOAA.NDBC:LBRF1:1,2009-09-11T18:00:00Z,25.4840,-81.1330,1.5,5.3,11111222 
ENP,ioos.station.NOAA.NDBC:LBRF1:1,2009-09-11T19:00:00Z,25.4840,-81.1330,1.5,2.7,11111222 
ENP,ioos.station.NOAA.NDBC:LBRF1:1,2009-09-11T20:00:00Z,25.4840,-81.1330,1.5,2.1,11111222 
ENP,ioos.station.NOAA.NDBC:LBRF1:1,2009-09-11T21:00:00Z,25.4840,-81.1330,1.5,1.9,11111222 
ENP,ioos.station.NOAA.NDBC:LBRF1:1,2009-09-11T22:00:00Z,25.4840,-81.1330,1.5,1.9,11111222 
ENP,ioos.station.NOAA.NDBC:LBRF1:1,2009-09-11T23:00:00Z,25.4840,-81.1330,1.5,2.2,11111222 
ENP,ioos.station.NOAA.NDBC:LBRF1:1,2009-09-12T00:00:00Z,25.4840,-81.1330,1.5,6.3,11111222 
ENP,ioos.station.NOAA.NDBC:LBRF1:1,2009-09-12T01:00:00Z,25.4840,-81.1330,1.5,10.9,11111222 
ENP,ioos.station.NOAA.NDBC:LBRF1:1,2009-09-12T02:00:00Z,25.4840,-81.1330,1.5,12.9,11111222 
ENP,ioos.station.NOAA.NDBC:LBRF1:1,2009-09-12T03:00:00Z,25.4840,-81.1330,1.5,13.2,11111222 
ENP,ioos.station.NOAA.NDBC:LBRF1:1,2009-09-12T04:00:00Z,25.4840,-81.1330,1.5,10.8,11111222 
ENP,ioos.station.NOAA.NDBC:LBRF1:1,2009-09-12T05:00:00Z,25.4840,-81.1330,1.5,6.3,11111222 
ENP,ioos.station.NOAA.NDBC:LBRF1:1,2009-09-12T06:00:00Z,25.4840,-81.1330,1.5,2.4,11111222 
ENP,ioos.station.NOAA.NDBC:LBRF1:1,2009-09-12T07:00:00Z,25.4840,-81.1330,1.5,2.1,11111222 
ENP,ioos.station.NOAA.NDBC:LBRF1:1,2009-09-12T08:00:00Z,25.4840,-81.1330,1.5,7.5,11111222 
ENP,ioos.station.NOAA.NDBC:LBRF1:1,2009-09-12T09:00:00Z,25.4840,-81.1330,1.5,13.4,11111222 
ENP,ioos.station.NOAA.NDBC:LBRF1:1,2009-09-12T10:00:00Z,25.4840,-81.1330,1.5,14.3,11111222 
ENP,ioos.station.NOAA.NDBC:LBRF1:1,2009-09-12T11:00:00Z,25.4840,-81.1330,1.5,18.0,11111222 
ENP,ioos.station.NOAA.NDBC:LBRF1:1,2009-09-12T12:00:00Z,25.4840,-81.1330,1.5,22.7,11111222 
ENP,ioos.station.NOAA.NDBC:LBRF1:1,2009-09-12T13:00:00Z,25.4840,-81.1330,1.5,23.6,11111222 
ENP,ioos.station.NOAA.NDBC:LBRF1:1,2009-09-12T14:00:00Z,25.4840,-81.1330,1.5,23.9,11111222 
ENP,ioos.station.NOAA.NDBC:LBRF1:1,2009-09-12T15:00:00Z,25.4840,-81.1330,1.5,23.6,11111222 
ENP,ioos.station.NOAA.NDBC:LBRF1:1,2009-09-12T16:00:00Z,25.4840,-81.1330,1.5,19.2,11111222 
ENP,ioos.station.NOAA.NDBC:LBRF1:1,2009-09-12T17:00:00Z,25.4840,-81.1330,1.5,16.9,11111222 
ENP,ioos.station.NOAA.NDBC:LBRF1:1,2009-09-12T19:00:00Z,25.4840,-81.1330,1.5,6.5,11111222 
ENP,ioos.station.NOAA.NDBC:LBRF1:1,2009-09-12T20:00:00Z,25.4840,-81.1330,1.5,3.7,11111222 
ENP,ioos.station.NOAA.NDBC:LBRF1:1,2009-09-12T21:00:00Z,25.4840,-81.1330,1.5,2.8,11111222 
ENP,ioos.station.NOAA.NDBC:LBRF1:1,2009-09-12T22:00:00Z,25.4840,-81.1330,1.5,2.1,11111222 
ENP,ioos.station.NOAA.NDBC:LBRF1:1,2009-09-12T23:00:00Z,25.4840,-81.1330,1.5,2.0,11111222 
ENP,ioos.station.NOAA.NDBC:LBRF1:1,2009-09-13T00:00:00Z,25.4840,-81.1330,1.5,2.1,11111222 